Location: Tamazert
(32.6352°N, 5.2072°W)
Time: 19:32:48
(UTC+00:00)

Vanguard 3 - Pass Details

Date: 03 October 2022
Orbit: 509 x 3255 km, 33.3° (Epoch: 02 December)

Event Time Altitude Azimuth Distance (km) Brightness Sun altitude
Rises 07:12:45 0° 221° (SW) 2,599 9.5 10.9°
Reaches altitude 10° 07:15:06 10° 207° (SSW) 1,717 8.7 11.4°
Maximum altitude 07:18:10 25° 150° (SSE) 1,142 8.7 12.1°
Drops below altitude 10° 07:21:50 10° 94° (E) 2,068 11.7 12.8°
Sets 07:24:58 0° 81° (E) 3,290 11.6 13.5°
